STARLINK-4075 (52670 NORAD) Tracking and Keplerian Element Data

This shows tracking and keplerian element data for the satellite.

Feedback or suggestion? Click here.




ElementValue
Catalog52670
NameSTARLINK-4075
Epoch Orbit130
Epoch Day192.91667824
Epoch Year2022
RAAN35.3957
Inclination53.2175
Eccentricity0.0001819
Argument of Perigee40.9799
Mean Anonmoly56.0002
Mean Motion15.20001279
Decay Rate-0.00725663
L11 52670U 22053Q 22192.91667824 -.00725663 00000+0 -35709-1 0 9996
L22 52670 53.2175 35.3957 0001819 40.9799 56.0002 15.20001279 1308

Live tracking and technical data element details for STARLINK-4075 (NORAD 52670). STARLINK-4075 can be tracked NOW for your location showing map with azimuth and elevation plus other details from your city location.

Track the satellite on the map from your city or location and see movement details for azimuth, elevation, latitude, longitude, range, height, and movement on the map or in text.







IsCatalogInMostPopularTable: catalog: 52670, numindb: 6
Update: records affected: 1



GetName: 52670 STARLINK-4075

Hit Count: updated at: Sat, 13 Aug 2022 23:57:05 GMT